Harrisburg, IL

10:51 PM CDT on March 24, 2017 (GMT -0500)
Harrisburg-Raleigh

Weather History for KHSB - January, 2012

Change the Weather History Date:

Tuesday, January 31, 2012

  Actual Average (KMWA) Record (KMWA)
Temperature  
Mean Temperature 54 °F -  
Max Temperature 60 °F 39 °F 66 °F (2002)
Min Temperature 48 °F 21 °F -1 °F (1977)
Degree Days  
Heating Degree Days 11    
Growing Degree Days 4 (Base 50)    
Moisture  
Dew Point 41 °F    
Average Humidity 62    
Maximum Humidity 82    
Minimum Humidity 50    
Precipitation  
Precipitation 0.00 in - - ()
Sea Level Pressure  
Sea Level Pressure 30.09 in    
Wind  
Wind Speed 12 mph (SSW)    
Max Wind Speed 22 mph    
Max Gust Speed 33 mph    
Visibility 10 miles    
Events      
Averages and records for this station are not official NWS values.
T = Trace of Precipitation, MM = Missing Value Source: NWS Daily Summary

Daily Weather History Graph

Daily Weather History Graph

Search for Another Location

Airport or City:

Trip Planner

Search our weather history database for the weather conditions in past years. The results will help you decide how hot, cold, wet, or windy it might be!

Date:

Astronomy

Jan. 31, 2012 Rise Set
Actual Time 6:59 AM CST 5:16 PM CST
Civil Twilight 6:31 AM CST 5:43 PM CST
Nautical Twilight 6:00 AM CST 6:15 PM CST
Astronomical Twilight 5:29 AM CST 6:46 PM CST
Moon 11:07 AM CST (1/31) 12:46 AM CST (1/31)
Length of Visible Light 11h 12m
Length of Day
10h 16m
First Quarter, 55% of the Moon is Illuminated
Jan 31
First Quarter
Feb 7
Full
Feb 14
Last Quarter
Feb 21
New
Feb 29
First Quarter

Hourly Weather History & Observations

Time (CST) Temp. Dew Point Humidity Pressure Visibility Wind Dir Wind Speed Gust Speed Precip Events Conditions
12:15 AM 50.0 °F 32.0 °F 50% 30.12 in 10.0 mi SSW 9.2 mph - N/A   Clear
12:35 AM 48.2 °F 32.0 °F 54% 30.12 in 10.0 mi SSW 5.8 mph - N/A   Scattered Clouds
12:55 AM 50.0 °F 32.0 °F 50% 30.12 in 10.0 mi SSW 9.2 mph - N/A   Clear
1:15 AM 50.0 °F 32.0 °F 50% 30.13 in 10.0 mi SSW 8.1 mph - N/A   Scattered Clouds
1:35 AM 50.0 °F 32.0 °F 50% 30.13 in 10.0 mi SSW 9.2 mph - N/A   Mostly Cloudy
1:55 AM 50.0 °F 32.0 °F 50% 30.13 in 10.0 mi SSW 9.2 mph - N/A   Scattered Clouds
2:15 AM 48.2 °F 32.0 °F 54% 30.13 in 10.0 mi SSW 9.2 mph - N/A   Mostly Cloudy
2:35 AM 48.2 °F 32.0 °F 54% 30.12 in 10.0 mi SSW 10.4 mph - N/A   Mostly Cloudy
2:55 AM 50.0 °F 32.0 °F 50% 30.12 in 10.0 mi SSW 10.4 mph - N/A   Clear
3:15 AM 50.0 °F 32.0 °F 50% 30.12 in 10.0 mi SSW 11.5 mph - N/A   Clear
3:35 AM 50.0 °F 32.0 °F 50% 30.11 in 10.0 mi SSW 9.2 mph - N/A   Scattered Clouds
3:55 AM 48.2 °F 32.0 °F 54% 30.11 in 10.0 mi SSW 6.9 mph - N/A   Clear
4:15 AM 48.2 °F 32.0 °F 54% 30.11 in 10.0 mi SSW 9.2 mph - N/A   Clear
4:35 AM 48.2 °F 32.0 °F 54% 30.11 in 10.0 mi SSW 9.2 mph - N/A   Clear
4:55 AM 48.2 °F 32.0 °F 54% 30.11 in 10.0 mi SSW 8.1 mph - N/A   Scattered Clouds
5:15 AM 48.2 °F 32.0 °F 54% 30.11 in 10.0 mi SSW 10.4 mph - N/A   Scattered Clouds
5:35 AM 48.2 °F 32.0 °F 54% 30.11 in 10.0 mi SSW 10.4 mph - N/A   Clear
5:55 AM 48.2 °F 32.0 °F 54% 30.11 in 10.0 mi SW 10.4 mph - N/A   Scattered Clouds
6:15 AM 50.0 °F 32.0 °F 50% 30.11 in 10.0 mi SSW 9.2 mph - N/A   Mostly Cloudy
6:35 AM 50.0 °F 33.8 °F 54% 30.11 in 10.0 mi SSW 11.5 mph - N/A   Overcast
6:55 AM 51.8 °F 33.8 °F 50% 30.11 in 10.0 mi SSW 13.8 mph 19.6 mph N/A   Overcast
7:15 AM 51.8 °F 35.6 °F 54% 30.12 in 10.0 mi SSW 16.1 mph 21.9 mph N/A   Overcast
7:35 AM 51.8 °F 35.6 °F 54% 30.12 in 10.0 mi SSW 15.0 mph 20.7 mph N/A   Overcast
7:55 AM 51.8 °F 35.6 °F 54% 30.12 in 10.0 mi SSW 15.0 mph 19.6 mph N/A   Overcast
8:15 AM 51.8 °F 37.4 °F 58% 30.13 in 10.0 mi SSW 13.8 mph 21.9 mph N/A   Mostly Cloudy
8:35 AM 51.8 °F 37.4 °F 58% 30.13 in 10.0 mi SSW 13.8 mph 23.0 mph N/A   Overcast
8:55 AM 53.6 °F 39.2 °F 58% 30.12 in 10.0 mi SSW 15.0 mph 25.3 mph N/A   Overcast
9:15 AM 53.6 °F 41.0 °F 62% 30.12 in 10.0 mi SSW 16.1 mph 24.2 mph N/A   Overcast
9:35 AM 53.6 °F 41.0 °F 62% 30.12 in 10.0 mi SW 16.1 mph 26.5 mph N/A   Overcast
9:55 AM 53.6 °F 41.0 °F 62% 30.13 in 10.0 mi SSW 15.0 mph 21.9 mph N/A   Overcast
10:15 AM 53.6 °F 41.0 °F 62% 30.13 in 10.0 mi SSW 12.7 mph 26.5 mph N/A   Overcast
10:35 AM 53.6 °F 42.8 °F 67% 30.12 in 10.0 mi SSW 17.3 mph 26.5 mph N/A   Overcast
10:55 AM 55.4 °F 42.8 °F 63% 30.11 in 10.0 mi SSW 16.1 mph 23.0 mph N/A   Overcast
11:15 AM 55.4 °F 44.6 °F 67% 30.10 in 10.0 mi SSW 16.1 mph 23.0 mph N/A   Overcast
11:35 AM 55.4 °F 44.6 °F 67% 30.08 in 10.0 mi SSW 20.7 mph 26.5 mph N/A   Overcast
11:55 AM 59.0 °F 46.4 °F 63% 30.08 in 10.0 mi SSW 19.6 mph 33.4 mph N/A   Overcast
12:15 PM 59.0 °F 46.4 °F 63% 30.06 in 10.0 mi SSW 16.1 mph 32.2 mph N/A   Overcast
12:35 PM 60.8 °F 48.2 °F 63% 30.05 in 10.0 mi SSW 21.9 mph 31.1 mph N/A   Mostly Cloudy
12:55 PM 59.0 °F 48.2 °F 67% 30.04 in 10.0 mi SSW 19.6 mph 27.6 mph N/A   Mostly Cloudy
1:15 PM 59.0 °F 50.0 °F 72% 30.03 in 10.0 mi SSW 17.3 mph 26.5 mph N/A   Scattered Clouds
1:35 PM 60.8 °F 50.0 °F 68% 30.02 in 10.0 mi SSW 21.9 mph 32.2 mph N/A   Mostly Cloudy
1:55 PM 59.0 °F 50.0 °F 72% 30.02 in 10.0 mi SW 17.3 mph 24.2 mph N/A   Overcast
2:15 PM 60.8 °F 50.0 °F 68% 30.02 in 10.0 mi SSW 20.7 mph 29.9 mph N/A   Overcast
2:35 PM 59.0 °F 50.0 °F 72% 30.02 in 10.0 mi SSW 15.0 mph 24.2 mph N/A   Overcast
2:55 PM 59.0 °F 50.0 °F 72% 30.02 in 10.0 mi SSW 13.8 mph 20.7 mph N/A   Overcast
3:15 PM 59.0 °F 50.0 °F 72% 30.02 in 10.0 mi SSW 11.5 mph 18.4 mph N/A   Overcast
3:35 PM 59.0 °F 51.8 °F 77% 30.02 in 10.0 mi SSW 16.1 mph 19.6 mph N/A   Overcast
3:55 PM 59.0 °F 51.8 °F 77% 30.02 in 10.0 mi SSW 12.7 mph - N/A   Overcast
4:15 PM 59.0 °F 51.8 °F 77% 30.02 in 10.0 mi SSW 15.0 mph 19.6 mph N/A   Overcast
4:35 PM 59.0 °F 51.8 °F 77% 30.02 in 10.0 mi SSW 15.0 mph - N/A   Overcast
4:55 PM 59.0 °F 51.8 °F 77% 30.02 in 10.0 mi SSW 17.3 mph 25.3 mph N/A   Overcast
5:15 PM 59.0 °F 53.6 °F 82% 30.02 in 10.0 mi SSW 12.7 mph - N/A   Overcast
5:35 PM 59.0 °F 53.6 °F 82% 30.03 in 10.0 mi SW 12.7 mph 23.0 mph N/A   Overcast
5:55 PM 59.0 °F 53.6 °F 82% 30.04 in 10.0 mi SW 9.2 mph - N/A   Overcast
6:15 PM 59.0 °F 53.6 °F 82% 30.04 in 10.0 mi SW 6.9 mph - N/A   Overcast
6:35 PM 59.0 °F 53.6 °F 82% 30.04 in 10.0 mi SW 9.2 mph - N/A   Overcast
6:55 PM 59.0 °F 53.6 °F 82% 30.04 in 10.0 mi SSW 8.1 mph - N/A   Overcast
7:15 PM 59.0 °F 53.6 °F 82% 30.04 in 10.0 mi SSW 6.9 mph - N/A   Overcast
7:35 PM 57.2 °F 53.6 °F 88% 30.05 in 10.0 mi SSW 6.9 mph - N/A   Light Drizzle
7:55 PM 59.0 °F 53.6 °F 82% 30.04 in 10.0 mi SSW 9.2 mph - N/A   Overcast
8:15 PM 59.0 °F 53.6 °F 82% 30.04 in 10.0 mi SSW 9.2 mph - N/A   Overcast
8:35 PM 59.0 °F 53.6 °F 82% 30.04 in 10.0 mi SSW 10.4 mph - N/A   Overcast
8:55 PM 59.0 °F 53.6 °F 82% 30.04 in 10.0 mi SSW 11.5 mph - N/A   Overcast
9:15 PM 59.0 °F 53.6 °F 82% 30.04 in 10.0 mi SSW 13.8 mph 19.6 mph N/A   Overcast
9:35 PM 59.0 °F 53.6 °F 82% 30.04 in 10.0 mi SSW 15.0 mph 21.9 mph N/A   Overcast
9:55 PM 59.0 °F 53.6 °F 82% 30.03 in 10.0 mi SW 15.0 mph - N/A   Overcast
10:15 PM 60.8 °F 53.6 °F 77% 30.04 in 10.0 mi SW 13.8 mph 21.9 mph N/A   Overcast
10:35 PM 59.0 °F 53.6 °F 82% 30.03 in 10.0 mi SSW 13.8 mph - N/A   Overcast
10:55 PM 59.0 °F 53.6 °F 82% 30.03 in 10.0 mi SSW 11.5 mph - N/A   Overcast
11:15 PM 59.0 °F 53.6 °F 82% 30.03 in 10.0 mi SSW 12.7 mph - N/A   Overcast
11:35 PM 59.0 °F 53.6 °F 82% 30.03 in 10.0 mi SSW 11.5 mph - N/A   Scattered Clouds
11:55 PM 59.0 °F 53.6 °F 82% 30.04 in 10.0 mi SSW 10.4 mph - N/A   Unknown